Hourly Weather Çay

Today, 12 June, Saturday

Time Temperature Precipitation Wind Pressure Humidity
00:00 +15°C° 0 mm 1 mps 670 mmHg 78%
01:00 +15°C° 0 mm 1 mps 670 mmHg 78%
02:00 +14°C° 0 mm 1 mps 670 mmHg 79%
03:00 +14°C° 0 mm 1 mps 670 mmHg 79%
04:00 +14°C° 0 mm 1 mps 670 mmHg 79%
05:00 +14°C° 0 mm 1 mps 669 mmHg 80%
06:00 +14°C° 0 mm 0 mps 670 mmHg 73%
07:00 +15°C° 0 mm 0 mps 670 mmHg 67%
08:00 +17°C° 0 mm 0 mps 671 mmHg 61%
09:00 +18°C° 0.3 mm 0 mps 671 mmHg 57%
10:00 +21°C° 0.3 mm 1 mps 671 mmHg 53%
11:00 +22°C° 0.3 mm 1 mps 671 mmHg 48%
12:00 +23°C° 0.3 mm 1 mps 671 mmHg 46%
13:00 +23°C° 0.3 mm 2 mps 671 mmHg 45%
14:00 +23°C° 0.3 mm 2 mps 671 mmHg 43%
15:00 +21°C° 0.3 mm 2 mps 671 mmHg 48%
16:00 +20°C° 0.3 mm 2 mps 670 mmHg 53%
17:00 +19°C° 0.3 mm 2 mps 670 mmHg 58%
18:00 +19°C° 0.2 mm 2 mps 670 mmHg 61%
19:00 +19°C° 0.2 mm 1 mps 670 mmHg 64%
20:00 +18°C° 0.2 mm 1 mps 670 mmHg 67%
21:00 +18°C° 0 mm 1 mps 670 mmHg 68%
22:00 +16°C° 0 mm 1 mps 671 mmHg 69%
23:00 +16°C° 0 mm 1 mps 671 mmHg 70%

Tomorrow, 13 June, Sunday

Time Temperature Precipitation Wind Pressure Humidity
00:00 +16°C° 0 mm 1 mps 671 mmHg 71%
01:00 +15°C° 0 mm 1 mps 670 mmHg 71%
02:00 +15°C° 0 mm 1 mps 670 mmHg 72%
03:00 +14°C° 0 mm 0 mps 670 mmHg 73%
04:00 +14°C° 0 mm 0 mps 670 mmHg 74%
05:00 +13°C° 0 mm 0 mps 670 mmHg 75%
06:00 +15°C° 0 mm 0 mps 670 mmHg 69%
07:00 +17°C° 0 mm 0 mps 671 mmHg 62%
08:00 +18°C° 0 mm 0 mps 671 mmHg 56%
09:00 +21°C° 0 mm 1 mps 671 mmHg 52%
10:00 +23°C° 0 mm 1 mps 671 mmHg 47%
11:00 +24°C° 0 mm 1 mps 671 mmHg 43%
12:00 +24°C° 0 mm 1 mps 671 mmHg 42%
13:00 +24°C° 0 mm 2 mps 671 mmHg 42%
14:00 +24°C° 0 mm 2 mps 670 mmHg 41%
15:00 +23°C° 0.4 mm 2 mps 670 mmHg 45%
16:00 +21°C° 0.4 mm 2 mps 670 mmHg 48%
17:00 +21°C° 0.4 mm 3 mps 669 mmHg 52%
18:00 +20°C° 0.1 mm 2 mps 670 mmHg 56%
19:00 +19°C° 0.1 mm 2 mps 670 mmHg 60%
20:00 +19°C° 0.1 mm 1 mps 670 mmHg 64%
21:00 +18°C° 0.1 mm 1 mps 670 mmHg 67%
22:00 +18°C° 0.1 mm 1 mps 669 mmHg 70%
23:00 +16°C° 0.1 mm 1 mps 669 mmHg 72%

Day after tomorrow, 14 June, Monday

Time Temperature Precipitation Wind Pressure Humidity
00:00 +16°C° 0.1 mm 1 mps 669 mmHg 73%
01:00 +16°C° 0.1 mm 1 mps 669 mmHg 74%
02:00 +16°C° 0.1 mm 1 mps 668 mmHg 75%
03:00 +15°C° 0.3 mm 1 mps 668 mmHg 77%
04:00 +15°C° 0.3 mm 1 mps 668 mmHg 80%
05:00 +14°C° 0.3 mm 1 mps 668 mmHg 82%
06:00 +16°C° 0.5 mm 1 mps 668 mmHg 77%
07:00 +18°C° 0.5 mm 1 mps 668 mmHg 71%
08:00 +19°C° 0.5 mm 1 mps 669 mmHg 66%
09:00 +20°C° 1 mm 1 mps 668 mmHg 61%
10:00 +21°C° 1 mm 1 mps 668 mmHg 57%
11:00 +21°C° 1 mm 1 mps 668 mmHg 52%
12:00 +21°C° 0.9 mm 1 mps 668 mmHg 53%
13:00 +20°C° 0.9 mm 2 mps 667 mmHg 54%
14:00 +20°C° 0.9 mm 3 mps 667 mmHg 55%
15:00 +19°C° 2.6 mm 3 mps 667 mmHg 64%
16:00 +17°C° 2.6 mm 3 mps 667 mmHg 72%
17:00 +16°C° 2.6 mm 3 mps 667 mmHg 81%
18:00 +15°C° 3.8 mm 2 mps 667 mmHg 83%
19:00 +14°C° 3.8 mm 2 mps 667 mmHg 84%
20:00 +13°C° 3.8 mm 1 mps 667 mmHg 86%
21:00 +13°C° 0.3 mm 1 mps 667 mmHg 87%
22:00 +13°C° 0.3 mm 1 mps 667 mmHg 87%
23:00 +13°C° 0.3 mm 1 mps 667 mmHg 88%

15 June, Tuesday

Time Temperature Precipitation Wind Pressure Humidity
00:00 +12°C° 0.6 mm 2 mps 667 mmHg 88%
01:00 +12°C° 0.6 mm 2 mps 667 mmHg 89%
02:00 +10°C° 0.6 mm 2 mps 667 mmHg 90%
03:00 +10°C° 0.1 mm 2 mps 667 mmHg 89%
04:00 +10°C° 0.1 mm 3 mps 668 mmHg 87%
05:00 +10°C° 0.1 mm 3 mps 668 mmHg 86%
06:00 +11°C° 0 mm 3 mps 668 mmHg 82%
07:00 +11°C° 0 mm 3 mps 669 mmHg 77%
08:00 +12°C° 0 mm 3 mps 669 mmHg 73%
09:00 +12°C° 0 mm 3 mps 670 mmHg 69%
10:00 +13°C° 0 mm 3 mps 670 mmHg 64%
11:00 +14°C° 0 mm 3 mps 670 mmHg 60%
12:00 +16°C° 0 mm 3 mps 670 mmHg 57%
13:00 +17°C° 0 mm 3 mps 670 mmHg 54%
14:00 +18°C° 0 mm 3 mps 670 mmHg 50%
15:00 +18°C° 0 mm 3 mps 670 mmHg 50%
16:00 +18°C° 0 mm 3 mps 670 mmHg 50%
17:00 +17°C° 0 mm 3 mps 670 mmHg 50%
18:00 +16°C° 0 mm 3 mps 670 mmHg 56%
19:00 +14°C° 0 mm 3 mps 670 mmHg 61%
20:00 +14°C° 0 mm 2 mps 670 mmHg 66%
21:00 +14°C° 0 mm 2 mps 670 mmHg 69%
22:00 +13°C° 0 mm 2 mps 670 mmHg 72%
23:00 +13°C° 0 mm 1 mps 670 mmHg 75%

16 June, Wednesday

Time Temperature Precipitation Wind Pressure Humidity
00:00 +12°C° 0 mm 1 mps 670 mmHg 78%
01:00 +12°C° 0 mm 1 mps 669 mmHg 80%
02:00 +11°C° 0 mm 1 mps 669 mmHg 83%
03:00 +11°C° 0 mm 1 mps 669 mmHg 83%
04:00 +11°C° 0 mm 1 mps 669 mmHg 84%
05:00 +11°C° 0 mm 1 mps 669 mmHg 85%
06:00 +11°C° 0 mm 0 mps 669 mmHg 78%
07:00 +13°C° 0 mm 0 mps 670 mmHg 71%
08:00 +14°C° 0 mm 0 mps 670 mmHg 64%
09:00 +18°C° 0 mm 1 mps 670 mmHg 57%
10:00 +19°C° 0 mm 1 mps 671 mmHg 50%
11:00 +21°C° 0 mm 1 mps 671 mmHg 44%
12:00 +21°C° 0 mm 1 mps 671 mmHg 41%
13:00 +22°C° 0 mm 1 mps 671 mmHg 37%
14:00 +23°C° 0 mm 2 mps 670 mmHg 34%
15:00 +23°C° 0 mm 2 mps 670 mmHg 34%
16:00 +23°C° 0 mm 2 mps 670 mmHg 34%
17:00 +23°C° 0 mm 2 mps 670 mmHg 34%
18:00 +21°C° 0 mm 2 mps 670 mmHg 39%
19:00 +19°C° 0 mm 3 mps 670 mmHg 44%
20:00 +18°C° 0 mm 3 mps 670 mmHg 50%
21:00 +17°C° 0.5 mm 3 mps 670 mmHg 58%
22:00 +16°C° 0.5 mm 2 mps 670 mmHg 66%
23:00 +15°C° 0.5 mm 2 mps 670 mmHg 74%

17 June, Thursday

Time Temperature Precipitation Wind Pressure Humidity
00:00 +15°C° 2.4 mm 2 mps 670 mmHg 79%
01:00 +14°C° 2.4 mm 2 mps 670 mmHg 84%
02:00 +12°C° 2.4 mm 3 mps 671 mmHg 88%
03:00 +12°C° 2.3 mm 3 mps 671 mmHg 88%
04:00 +13°C° 2.3 mm 2 mps 671 mmHg 87%
05:00 +13°C° 2.3 mm 2 mps 670 mmHg 86%
06:00 +14°C° 0 mm 2 mps 671 mmHg 80%
07:00 +15°C° 0 mm 2 mps 671 mmHg 74%
08:00 +16°C° 0 mm 2 mps 671 mmHg 68%
09:00 +17°C° 0 mm 2 mps 672 mmHg 63%
10:00 +19°C° 0 mm 2 mps 672 mmHg 58%
11:00 +20°C° 0 mm 2 mps 672 mmHg 52%
12:00 +21°C° 0 mm 2 mps 672 mmHg 50%
13:00 +23°C° 0 mm 2 mps 672 mmHg 47%
14:00 +23°C° 0 mm 2 mps 672 mmHg 44%
15:00 +22°C° 0 mm 3 mps 672 mmHg 46%
16:00 +22°C° 0 mm 3 mps 673 mmHg 48%
17:00 +21°C° 0 mm 3 mps 673 mmHg 50%
18:00 +20°C° 0 mm 3 mps 673 mmHg 58%
19:00 +19°C° 0 mm 2 mps 673 mmHg 65%
20:00 +17°C° 0 mm 2 mps 673 mmHg 73%
21:00 +16°C° 0 mm 2 mps 673 mmHg 77%
22:00 +16°C° 0 mm 2 mps 673 mmHg 80%
23:00 +15°C° 0 mm 2 mps 672 mmHg 84%
Show more

We Need Your Consent

Meteoprog and our Service Providers may store and access personal data such as cookies, device identifiers or other similar technologies on your device and process such data to personalise content and ads, as well as provide social media features and to analyse the traffic.

  • Store and/or access information on your device

    Cookies, device identifiers or other information can be stored or accessed on your device for the purposes indicated above.

  • Personalised ads and content, ad and content measurement, audience insights, and products development

    Ads and content can be personalised based on a profile. More data can be added to better personalise ads and content. Ad and content performance can be measured. Insights about the audience who saw the ads and content can be derived. Such data can be used to develop or improve user’s experience, systems and software.

By clicking ‘I Agree’ you will allow the use of indicated cookies, device identifiers, web beacons or other similar technologies. Your settings can be changed in the browser on your device.

For certain purposes, legitimate interests may be relied on, rather than consent. You can read more about this in our Privacy and Cookie Policy.